Content
SEND FEEDBACK

Daily
Averages
Monthly
Summary
United States of America

RAHWAY, NEW JERSEY


Home > North America > United States > New Jersey
Elevation: 20 feet     Latitude: 40 36N     Longitude: 074 16W

WEATHER
 
SELECT A DAY
Number of Records: 189,442;   Date Range: 1/1/95 - 7/7/14
 
SHARE

PRINT THIS DATA

[ ← Previous Day ]
WEATHER ALMANAC - JANUARY 19, 2013
[ Next Day → ]
[ °C ]   °F
Weather ElementAverageHighLow
Temperature40.9 °F52 °F (3:51 pm)28.4 °F (1:51 am)
Dewpoint23.1 °F28 °F (10:51 pm)12.2 °F (1:51 am)
Humidity50.4 %67 % (6:51 am)32 % (3:51 pm)
Barometer30.17 in30.40 in (1:51 am)29.93 in (11:51 pm)
Wind Speed16 mph23 mph (10:51 am)
Wind Gust28.8 mph (10:51 am)
Weather ElementAverage
Visibility10 mi
Wind DirectionSSW (213.5 °)

Weather ElementTotal
Precipitation---
Heating Degree Days24.8 (Base 65)
Averaged from 23 records on January 19, 2013
WEATHER CONDITIONS BREAKOUT
WIND DIRECTION BREAKOUT
WEATHER BY HOUR - JANUARY 19, 2013
[ °C ]   °F
Local TimeTemperatureDewpointHumidityBarometerVisibilityWind DirectionWind SpeedGust SpeedPrecipitationEventsConditions
1:51 AM28.4 °F12.2 °F51 %30.40 in10.0 miSSW (210°)11.5 mphPartly Cloudy
2:51 AM28.9 °F14.0 °F54 %30.38 in10.0 miSSW (200°)13.8 mphPartly Cloudy
3:51 AM30.0 °F16.0 °F56 %30.34 in10.0 miSSW (200°)13.8 mphPartly Cloudy
4:51 AM28.9 °F17.1 °F61 %30.33 in10.0 miSSW (210°)9.2 mphMostly Cloudy
5:51 AM30.0 °F19.0 °F64 %30.32 in10.0 miSW (220°)10.4 mphMostly Cloudy
6:51 AM30.9 °F21.0 °F67 %30.31 in10.0 miSSW (210°)10.4 mphMostly Cloudy
7:51 AM32.0 °F21.9 °F66 %30.30 in10.0 miSW (230°)13.8 mphMostly Cloudy
8:51 AM35.1 °F24.1 °F64 %30.30 in10.0 miSSW (210°)18.4 mph24.2 mphMostly Cloudy
9:51 AM37.9 °F25.0 °F60 %30.28 in10.0 miSW (220°)17.3 mphScattered Clouds
10:51 AM43.0 °F25.0 °F49 %30.25 in10.0 miSW (220°)23.0 mph28.8 mphScattered Clouds
11:51 AM46.0 °F25.0 °F44 %30.18 in10.0 miSW (230°)20.7 mphScattered Clouds
12:51 PM48.0 °F25.0 °F41 %30.14 in10.0 miSW (220°)23.0 mph27.6 mphMostly Cloudy
1:51 PM50.0 °F24.1 °F36 %30.11 in10.0 miSW (220°)18.4 mph27.6 mphMostly Cloudy
2:51 PM51.1 °F23.0 °F33 %30.09 in10.0 miSW (220°)19.6 mph25.3 mphMostly Cloudy
3:51 PM52.0 °F23.0 °F32 %30.07 in10.0 miSW (220°)19.6 mph25.3 mphMostly Cloudy
4:51 PM50.0 °F26.1 °F39 %30.05 in10.0 miSSW (200°)12.7 mphScattered Clouds
5:51 PM48.0 °F27.0 °F44 %30.05 in10.0 miSSW (200°)13.8 mphMostly Cloudy
6:51 PM46.9 °F27.0 °F46 %30.04 in10.0 miSSW (200°)15.0 mph23.0 mphMostly Cloudy
7:51 PM46.9 °F27.0 °F46 %30.03 in10.0 miSSW (210°)12.7 mph24.2 mphMostly Cloudy
8:51 PM44.6 °F26.6 °F49 %30.01 in10.0 miSSW (210°)18.4 mphScattered Clouds
9:51 PM45.0 °F27.0 °F49 %29.99 in10.0 miSSW (210°)18.4 mph26.5 mphMostly Cloudy
10:51 PM44.1 °F28.0 °F53 %29.96 in10.0 miSW (220°)17.3 mph23.0 mphMostly Cloudy
11:51 PM43.0 °F28.0 °F56 %29.93 in10.0 miSW (220°)16.1 mph25.3 mphMostly Cloudy
Hourly data recorded from KEWR, located miles away from Rahway, New Jersey







STORIES FROM OUR PARTNERS